Weather History for Cozumel, Mexico

Change the Weather History Date:

Thursday, November 24, 2011

  Actual Average Record
Temperature  
Mean Temperature 70 °F -  
Max Temperature 78 °F 81 °F 87 °F (1997)
Min Temperature 62 °F 71 °F 62 °F (2011)
Cooling Degree Days 5    
Growing Degree Days 20 (Base 50)    
Moisture  
Dew Point 67 °F    
Average Humidity 88    
Maximum Humidity 100    
Minimum Humidity 65    
Precipitation  
Precipitation 0.00 in - - ()
Sea Level Pressure  
Sea Level Pressure 30.09 in    
Wind  
Wind Speed 3 mph ()    
Max Wind Speed 8 mph    
Max Gust Speed -    
Visibility 7.8 miles    
Events      
Averages and records for this station are not official NWS values.
T = Trace of Precipitation, MM = Missing Value Source: Averaged Metar Reports

Daily Weather History Graph

Daily Weather History Graph

Search for Another Location

Airport:

Trip Planner

Search our weather history database for the weather conditions in past years. The results will help you decide how hot, cold, wet, or windy it might be!

Date:

Astronomy

Nov. 24, 2011 Rise Set
Actual Time 6:02 AM CST 5:05 PM CST
Civil Twilight 5:39 AM CST 5:29 PM CST
Nautical Twilight 5:12 AM CST 5:56 PM CST
Astronomical Twilight 4:45 AM CST 6:23 PM CST
Moon 5:18 AM CST (11/24) 4:40 PM CST (11/24)
Length of Visible Light 11h 50m
Length of Day
11h 03m
Waning Crescent, 0% of the Moon is Illuminated
Nov 24
Waning Crescent
Nov 25
New
Dec 2
First Quarter
Dec 10
Full
Dec 17
Last Quarter

Hourly Weather History & Observations

Time (CST) Temp. Dew Point Humidity Pressure Visibility Wind Dir Wind Speed Gust Speed Precip Events Conditions
12:48 AM 62.6 °F 62.6 °F 100% 30.09 in 7.0 mi Calm Calm - N/A   Partly Cloudy
1:57 AM 62.6 °F 62.6 °F 100% 30.07 in 7.0 mi Calm Calm - N/A   Partly Cloudy
2:46 AM 62.6 °F 62.6 °F 100% 30.10 in 7.0 mi Calm Calm - N/A   Partly Cloudy
4:12 AM 62.6 °F 62.6 °F 100% 30.07 in 7.0 mi Calm Calm - N/A   Partly Cloudy
4:41 AM 64.4 °F 64.4 °F 100% 30.07 in 7.0 mi Calm Calm - N/A   Partly Cloudy
5:44 AM 64.4 °F 64.4 °F 100% 30.05 in 7.0 mi North 3.5 mph - N/A   Partly Cloudy
6:40 AM 66.2 °F 66.2 °F 100% 30.10 in 7.0 mi North 3.5 mph - N/A   Partly Cloudy
7:42 AM 73.4 °F 71.6 °F 94% 30.11 in 8.0 mi North 6.9 mph - N/A   Partly Cloudy
8:44 AM 75.2 °F 69.8 °F 83% 30.16 in 8.0 mi North 8.1 mph - N/A   Partly Cloudy
9:47 AM 77.0 °F 69.8 °F 78% 30.13 in 10.0 mi North 6.9 mph - N/A   Scattered Clouds
10:44 AM 77.0 °F 69.8 °F 78% 30.12 in 10.0 mi North 8.1 mph - N/A   Scattered Clouds
11:47 AM 77.0 °F 69.8 °F 78% 30.09 in 10.0 mi North 8.1 mph - N/A   Scattered Clouds
12:40 PM 78.8 °F 66.2 °F 65% 30.07 in 10.0 mi NNW 4.6 mph - N/A   Scattered Clouds
1:44 PM 78.8 °F 68.0 °F 69% 30.05 in 10.0 mi NE 3.5 mph - N/A   Partly Cloudy
2:40 PM 78.8 °F 68.0 °F 69% 30.08 in 8.0 mi NE 5.8 mph - N/A   Partly Cloudy
3:44 PM 78.8 °F 68.0 °F 69% 30.05 in 8.0 mi NE 5.8 mph - N/A   Partly Cloudy
4:44 PM 75.2 °F 68.0 °F 78% 30.05 in 8.0 mi ENE 3.5 mph - N/A   Partly Cloudy
5:45 PM 71.6 °F 68.0 °F 88% 30.05 in 7.0 mi ENE 3.5 mph - N/A   Clear
6:40 PM 69.8 °F 66.2 °F 88% 30.08 in 7.0 mi ENE 3.5 mph - N/A   Clear
7:47 PM 68.0 °F 66.2 °F 94% 30.10 in 7.0 mi ENE 3.5 mph - N/A   Partly Cloudy
8:46 PM 68.0 °F 66.2 °F 94% 30.13 in 7.0 mi Calm Calm - N/A   Partly Cloudy
9:42 PM 66.2 °F 64.4 °F 94% 30.10 in 7.0 mi North 5.8 mph - N/A   Partly Cloudy
10:43 PM 71.6 °F 69.8 °F 94% 30.10 in 7.0 mi Calm Calm - N/A   Scattered Clouds
11:40 PM 68.0 °F 66.2 °F 94% 30.07 in 7.0 mi Calm Calm - N/A   Mostly Cloudy